User: anonymous   Login
Location: Asheville, NC
(35.6000°N, 82.5500°W)
Time: 10:53:43
(UTC-04:00)
Language:

UWE-3 - Orbit

View from above orbital plane
View from above orbital plane
View from above satellite
View from above satellite

Ground track
Ground track

The orbit data is extracted from the following two-line orbital elements,

1 39446U 13066AG  18170.87113650 +.00000209 +00000-0 +34476-4 0  9999
2 39446 097.5923 192.2602 0070606 165.7901 194.5319 14.78213803245519
Epoch (UTC): 19 June 2018 20:54:26
Eccentricity: 0.0070606
inclination: 97.5923°
perigee height: 585 km
apogee height: 684 km
right ascension of ascending node: 192.2602°
argument of perigee: 165.7901°
revolutions per day: 14.78213803
mean anomaly at epoch: 194.5319°
orbit number at epoch: 24551

The dashed part of the orbit path shows where the satellite is in the earth's shadow,  

DLR